| time (UTC) | temp F | wind direction | speed knots | gust knots | rain 1hr in | rain 24hr in | rain mn in | humidity % | barometer mb |
| 20260904095523 | 62 | 15 | 5.2 | 7.8 | 0.00 | 0.00 | 0.00 | 67 | 1016.7 |
| 20260904095022 | 62 | 9 | 5.2 | 8.7 | 0.00 | 0.00 | 0.00 | 70 | 1016.7 |
| 20260904094520 | 63 | 18 | 5.2 | 7.0 | 0.00 | 0.00 | 0.00 | 72 | 1016.7 |
| 20260904094018 | 63 | 24 | 5.2 | 7.8 | 0.00 | 0.00 | 0.00 | 71 | 1016.7 |
| 20260904093517 | 63 | 23 | 5.2 | 8.7 | 0.00 | 0.00 | 0.00 | 71 | 1016.7 |
| 20260904093015 | 63 | 23 | 5.2 | 8.7 | 0.00 | 0.00 | 0.00 | 70 | 1016.7 |
| 20260904092514 | 63 | 28 | 5.2 | 7.8 | 0.00 | 0.00 | 0.00 | 70 | 1016.6 |
| 20260904092013 | 63 | 30 | 5.2 | 8.7 | 0.00 | 0.00 | 0.00 | 71 | 1016.5 |
| 20260904091512 | 63 | 21 | 5.2 | 8.7 | 0.00 | 0.00 | 0.00 | 72 | 1016.6 |
| 20260904091011 | 63 | 28 | 4.3 | 7.8 | 0.00 | 0.00 | 0.00 | 72 | 1016.5 |
| 20260904090510 | 63 | 36 | 4.3 | 7.8 | 0.00 | 0.00 | 0.00 | 71 | 1016.5 |
| 20260904085001 | 63 | 42 | 6.1 | 10.4 | 0.00 | 0.00 | 0.00 | 70 | 1016.2 |
| 20260904083941 | 64 | 42 | 6.1 | 11.3 | 0.00 | 0.00 | 0.00 | 69 | 1016.2 |
| 20260904082937 | 64 | 43 | 7.0 | 9.6 | 0.00 | 0.00 | 0.00 | 67 | 1016.1 |
| 20260904082436 | 64 | 38 | 6.1 | 9.6 | 0.00 | 0.00 | 0.00 | 66 | 1016.0 |
| 20260904081935 | 64 | 36 | 6.1 | 8.7 | 0.00 | 0.00 | 0.00 | 67 | 1016.0 |
| 20260904081434 | 64 | 35 | 5.2 | 7.0 | 0.00 | 0.00 | 0.00 | 66 | 1016.1 |
| 20260904080932 | 64 | 34 | 5.2 | 8.7 | 0.00 | 0.00 | 0.00 | 67 | 1016.0 |
| 20260904080431 | 64 | 34 | 6.1 | 10.4 | 0.00 | 0.00 | 0.00 | 68 | 1015.9 |
| 20260904075425 | 64 | 45 | 7.8 | 11.3 | 0.00 | 0.00 | 0.00 | 70 | 1016.0 |
| 20260904074421 | 64 | 44 | 7.8 | 11.3 | 0.00 | 0.00 | 0.00 | 69 | 1015.9 |
| 20260904073920 | 64 | 47 | 7.8 | 12.2 | 0.00 | 0.00 | 0.00 | 69 | 1015.8 |
| 20260904072916 | 64 | 52 | 8.7 | 13.0 | 0.00 | 0.00 | 0.00 | 67 | 1015.6 |
| 20260904072415 | 64 | 49 | 8.7 | 14.8 | 0.00 | 0.00 | 0.00 | 66 | 1015.6 |
| 20260904071410 | 64 | 54 | 9.6 | 13.0 | 0.00 | 0.00 | 0.00 | 66 | 1015.8 |
| 20260904070909 | 64 | 52 | 8.7 | 13.0 | 0.00 | 0.00 | 0.00 | 64 | 1015.6 |
| 20260904070355 | 64 | 63 | 10.4 | 13.0 | 0.00 | 0.00 | 0.00 | 64 | 1015.7 |
| 20260904065854 | 64 | 61 | 10.4 | 13.0 | 0.00 | 0.00 | 0.00 | 62 | 1015.7 |
| 20260904065353 | 64 | 59 | 10.4 | 13.0 | 0.00 | 0.00 | 0.00 | 62 | 1015.8 |
| 20260904064852 | 65 | 52 | 8.7 | 12.2 | 0.00 | 0.00 | 0.00 | 61 | 1015.8 |
| 20260904064350 | 65 | 58 | 9.6 | 13.9 | 0.00 | 0.00 | 0.00 | 61 | 1015.7 |
| 20260904063346 | 65 | 71 | 10.4 | 13.9 | 0.00 | 0.00 | 0.00 | 61 | 1015.8 |
| 20260904062845 | 65 | 63 | 9.6 | 13.0 | 0.00 | 0.00 | 0.00 | 60 | 1015.8 |
| 20260904062344 | 65 | 63 | 10.4 | 13.0 | 0.00 | 0.00 | 0.00 | 59 | 1015.8 |
| 20260904061339 | 65 | 63 | 9.6 | 13.9 | 0.00 | 0.00 | 0.00 | 59 | 1015.9 |
| 20260904060335 | 65 | 73 | 10.4 | 13.0 | 0.00 | 0.00 | 0.00 | 60 | 1015.9 |
| 20260904055834 | 65 | 73 | 9.6 | 12.2 | 0.00 | 0.00 | 0.00 | 60 | 1016.0 |
| 20260904055311 | 65 | 75 | 9.6 | 13.0 | 0.00 | 0.00 | 0.00 | 59 | 1016.0 |
| 20260904054810 | 66 | 86 | 8.7 | 13.0 | 0.00 | 0.00 | 0.00 | 59 | 1016.0 |
| 20260904054309 | 66 | 81 | 9.6 | 14.8 | 0.00 | 0.00 | 0.00 | 60 | 1016.0 |
| 20260904053807 | 67 | 85 | 10.4 | 13.9 | 0.00 | 0.00 | 0.00 | 58 | 1016.2 |
| 20260904053306 | 67 | 87 | 9.6 | 13.0 | 0.00 | 0.00 | 0.00 | 57 | 1016.1 |
| 20260904052806 | 67 | 85 | 9.6 | 13.9 | 0.00 | 0.00 | 0.00 | 55 | 1016.1 |
| 20260904052307 | 67 | 88 | 9.6 | 13.0 | 0.00 | 0.00 | 0.00 | 56 | 1016.2 |
| 20260904051804 | 67 | 86 | 9.6 | 13.0 | 0.00 | 0.00 | 0.00 | 55 | 1016.2 |
| 20260904051302 | 68 | 86 | 10.4 | 13.0 | 0.00 | 0.00 | 0.00 | 55 | 1016.2 |
| 20260904050801 | 69 | 91 | 8.7 | 11.3 | 0.00 | 0.00 | 0.00 | 53 | 1016.3 |
| 20260904050300 | 68 | 88 | 8.7 | 11.3 | 0.00 | 0.00 | 0.00 | 54 | 1016.4 |
| 20260904045800 | 69 | 91 | 7.8 | 10.4 | 0.00 | 0.00 | 0.00 | 52 | 1016.5 |
| 20260904045258 | 69 | 97 | 8.7 | 9.6 | 0.00 | 0.00 | 0.00 | 53 | 1016.5 |
| 20260904044757 | 69 | 96 | 8.7 | 11.3 | 0.00 | 0.00 | 0.00 | 50 | 1016.5 |
| 20260904044255 | 69 | 91 | 10.4 | 13.0 | 0.00 | 0.00 | 0.00 | 51 | 1016.5 |
| 20260904043734 | 71 | 91 | 9.6 | 12.2 | 0.00 | 0.00 | 0.00 | 49 | 1016.5 |
| 20260904042730 | 71 | 108 | 7.0 | 9.6 | 0.00 | 0.00 | 0.00 | 50 | 1016.5 |
| 20260904042229 | 71 | 116 | 7.0 | 10.4 | 0.00 | 0.00 | 0.00 | 49 | 1016.6 |
| 20260904041726 | 71 | 113 | 8.7 | 11.3 | 0.00 | 0.00 | 0.00 | 50 | 1016.7 |
| 20260904041225 | 71 | 114 | 7.8 | 10.4 | 0.00 | 0.00 | 0.00 | 48 | 1016.7 |
| 20260904040724 | 72 | 118 | 7.0 | 8.7 | 0.00 | 0.00 | 0.00 | 49 | 1016.7 |
| 20260904035632 | 72 | 118 | 8.7 | 10.4 | 0.00 | 0.00 | 0.00 | 47 | 1016.8 |
| 20260904035130 | 71 | 116 | 7.0 | 10.4 | 0.00 | 0.00 | 0.00 | 47 | 1016.8 |
| 20260904034630 | 71 | 115 | 6.1 | 8.7 | 0.00 | 0.00 | 0.00 | 46 | 1016.8 |
| 20260904034128 | 72 | 120 | 7.8 | 10.4 | 0.00 | 0.00 | 0.00 | 46 | 1016.8 |
| 20260904033627 | 71 | 118 | 8.7 | 10.4 | 0.00 | 0.00 | 0.00 | 47 | 1016.8 |
| 20260904032611 | 72 | 112 | 5.2 | 8.7 | 0.00 | 0.00 | 0.00 | 47 | 1016.9 |
| 20260904032110 | 72 | 116 | 5.2 | 7.0 | 0.00 | 0.00 | 0.00 | 47 | 1017.0 |
| 20260904031609 | 72 | 116 | 5.2 | 7.0 | 0.00 | 0.00 | 0.00 | 49 | 1017.0 |
| 20260904031107 | 72 | 118 | 5.2 | 7.0 | 0.00 | 0.00 | 0.00 | 44 | 1017.1 |
| 20260904030606 | 71 | 122 | 3.5 | 6.1 | 0.00 | 0.00 | 0.00 | 46 | 1017.2 |
| 20260904030105 | 71 | 109 | 4.3 | 7.0 | 0.00 | 0.00 | 0.00 | 48 | 1017.3 |
| 20260904024055 | 70 | 154 | 2.6 | 4.3 | 0.00 | 0.00 | 0.00 | 44 | 1017.8 |
| 20260904023553 | 70 | 243 | 2.6 | 4.3 | 0.00 | 0.00 | 0.00 | 40 | 1017.9 |
| 20260904023052 | 71 | 255 | 1.7 | 4.3 | 0.00 | 0.00 | 0.00 | 37 | 1018.0 |
| 20260904022551 | 70 | 248 | 1.7 | 3.5 | 0.00 | 0.00 | 0.00 | 38 | 1018.3 |
| 20260904022050 | 70 | 169 | 2.6 | 4.3 | 0.00 | 0.00 | 0.00 | 42 | 1018.4 |
| 20260904021549 | 69 | 196 | 1.7 | 4.3 | 0.00 | 0.00 | 0.00 | 43 | 1018.4 |
| 20260904021048 | 69 | 253 | 2.6 | 4.3 | 0.00 | 0.00 | 0.00 | 40 | 1018.4 |
| 20260904020547 | 69 | 247 | 3.5 | 5.2 | 0.00 | 0.00 | 0.00 | 40 | 1018.3 |
| 20260904015542 | 69 | 276 | 2.6 | 5.2 | 0.00 | 0.00 | 0.00 | 46 | 1018.5 |
| 20260904015041 | 69 | 284 | 2.6 | 5.2 | 0.00 | 0.00 | 0.00 | 41 | 1018.6 |
| 20260904014512 | 69 | 310 | 1.7 | 4.3 | 0.00 | 0.00 | 0.00 | 44 | 1018.6 |
| 20260904014011 | 68 | 324 | 2.6 | 6.1 | 0.00 | 0.00 | 0.00 | 47 | 1018.6 |
| 20260904013007 | 70 | 319 | 4.3 | 6.1 | 0.00 | 0.00 | 0.00 | 45 | 1018.8 |
| 20260904012506 | 70 | 315 | 6.1 | 7.0 | 0.00 | 0.00 | 0.00 | 44 | 1018.9 |
| 20260904011501 | 68 | 324 | 3.5 | 5.2 | 0.00 | 0.00 | 0.00 | 47 | 1019.1 |
| 20260904011000 | 71 | 318 | 5.2 | 7.8 | 0.00 | 0.00 | 0.00 | 47 | 1019.2 |
| 20260904010458 | 70 | 312 | 5.2 | 7.0 | 0.00 | 0.00 | 0.00 | 47 | 1019.3 |
| 20260904005957 | 69 | 312 | 5.2 | 7.8 | 0.00 | 0.00 | 0.00 | 45 | 1019.4 |
| 20260904005456 | 70 | 313 | 6.1 | 7.8 | 0.00 | 0.00 | 0.00 | 44 | 1019.6 |
| 20260904003948 | 69 | 319 | 4.3 | 7.8 | 0.00 | 0.00 | 0.00 | 47 | 1019.8 |
| 20260904003447 | 69 | 314 | 6.1 | 8.7 | 0.00 | 0.00 | 0.00 | 45 | 1019.8 |
| 20260904002946 | 68 | 315 | 5.2 | 8.7 | 0.00 | 0.00 | 0.00 | 47 | 1019.9 |
| 20260904002445 | 67 | 318 | 2.6 | 5.2 | 0.00 | 0.00 | 0.00 | 44 | 1020.0 |
| 20260904001944 | 66 | 292 | 3.5 | 8.7 | 0.00 | 0.00 | 0.00 | 50 | 1019.9 |
| 20260904001444 | 66 | 295 | 2.6 | 7.0 | 0.00 | 0.00 | 0.00 | 45 | 1019.8 |
| 20260904000943 | 66 | 315 | 1.7 | 4.3 | 0.00 | 0.00 | 0.00 | 46 | 1020.0 |
| 20260904000442 | 66 | 292 | 2.6 | 6.1 | 0.00 | 0.00 | 0.00 | 48 | 1020.1 |
| 20260903235940 | 66 | 306 | 2.6 | 7.8 | 0.00 | 0.00 | 0.00 | 47 | 1020.0 |
| 20260903234935 | 67 | 315 | 5.2 | 9.6 | 0.00 | 0.00 | 0.00 | 51 | 1020.0 |
| 20260903234434 | 66 | 308 | 4.3 | 7.0 | 0.00 | 0.00 | 0.00 | 51 | 1020.2 |
| 20260903233429 | 65 | 317 | 3.5 | 7.0 | 0.00 | 0.00 | 0.00 | 53 | 1020.3 |
| 20260903232928 | 65 | 315 | 3.5 | 7.8 | 0.00 | 0.00 | 0.00 | 54 | 1020.1 |
| 20260903231923 | 64 | 291 | 2.6 | 5.2 | 0.00 | 0.00 | 0.00 | 58 | 1020.3 |
| 20260903231423 | 63 | 283 | 3.5 | 7.8 | 0.00 | 0.00 | 0.00 | 57 | 1020.4 |
| 20260903230921 | 63 | 295 | 3.5 | 7.8 | 0.00 | 0.00 | 0.00 | 57 | 1020.3 |
| 20260903230420 | 63 | 300 | 3.5 | 10.4 | 0.00 | 0.00 | 0.00 | 59 | 1020.3 |
| 20260903225350 | 62 | 299 | 2.6 | 7.0 | 0.00 | 0.00 | 0.00 | 58 | 1020.4 |
| 20260903224848 | 62 | 300 | 3.5 | 6.1 | 0.00 | 0.00 | 0.00 | 58 | 1020.3 |
| 20260903223839 | 62 | 305 | 2.6 | 7.0 | 0.00 | 0.00 | 0.00 | 59 | 1020.3 |
| 20260903223336 | 62 | 307 | 3.5 | 8.7 | 0.00 | 0.00 | 0.00 | 59 | 1020.4 |
| 20260903222331 | 62 | 322 | 2.6 | 6.1 | 0.00 | 0.00 | 0.00 | 62 | 1020.3 |
| 20260903221830 | 62 | 317 | 4.3 | 7.0 | 0.00 | 0.00 | 0.00 | 62 | 1020.3 |
| 20260903221328 | 62 | 315 | 3.5 | 8.7 | 0.00 | 0.00 | 0.00 | 63 | 1020.2 |
| 20260903220825 | 62 | 320 | 4.3 | 7.0 | 0.00 | 0.00 | 0.00 | 65 | 1020.2 |
| 20260903220324 | 62 | 321 | 4.3 | 7.0 | 0.00 | 0.00 | 0.00 | 65 | 1020.2 |
| 20260903215821 | 62 | 305 | 2.6 | 5.2 | 0.00 | 0.00 | 0.00 | 64 | 1020.3 |
| 20260903215319 | 62 | 300 | 2.6 | 6.1 | 0.00 | 0.00 | 0.00 | 62 | 1020.2 |
| 20260903214816 | 61 | 286 | 2.6 | 5.2 | 0.00 | 0.00 | 0.00 | 61 | 1020.0 |
| 20260903214315 | 61 | 261 | 3.5 | 5.2 | 0.00 | 0.00 | 0.00 | 60 | 1020.0 |
| 20260903213812 | 60 | 254 | 4.3 | 7.0 | 0.00 | 0.00 | 0.00 | 59 | 1019.9 |
| 20260903213311 | 60 | 251 | 5.2 | 7.8 | 0.00 | 0.00 | 0.00 | 59 | 1019.7 |
| 20260903212809 | 60 | 245 | 4.3 | 7.8 | 0.00 | 0.00 | 0.00 | 57 | 1019.6 |
| 20260903212307 | 60 | 237 | 4.3 | 7.8 | 0.00 | 0.00 | 0.00 | 57 | 1019.6 |
| 20260903211803 | 60 | 238 | 5.2 | 9.6 | 0.00 | 0.00 | 0.00 | 55 | 1019.5 |
| 20260903211301 | 61 | 242 | 5.2 | 11.3 | 0.00 | 0.00 | 0.00 | 54 | 1019.4 |
| 20260903210256 | 61 | 224 | 4.3 | 6.1 | 0.00 | 0.00 | 0.00 | 51 | 1019.5 |
| 20260903205753 | 61 | 235 | 4.3 | 7.0 | 0.00 | 0.00 | 0.00 | 53 | 1019.4 |
| 20260903205249 | 60 | 253 | 3.5 | 7.0 | 0.00 | 0.00 | 0.00 | 52 | 1019.2 |
| 20260903204747 | 60 | 234 | 2.6 | 6.1 | 0.00 | 0.00 | 0.00 | 51 | 1019.3 |
| 20260903204246 | 60 | 220 | 5.2 | 8.7 | 0.00 | 0.00 | 0.00 | 51 | 1019.3 |
| 20260903203743 | 60 | 232 | 7.0 | 11.3 | 0.00 | 0.00 | 0.00 | 53 | 1019.0 |
| 20260903203242 | 59 | 230 | 6.1 | 11.3 | 0.00 | 0.00 | 0.00 | 52 | 1018.8 |
| 20260903202738 | 59 | 222 | 6.1 | 10.4 | 0.00 | 0.00 | 0.00 | 52 | 1018.9 |
| 20260903202236 | 59 | 227 | 7.0 | 11.3 | 0.00 | 0.00 | 0.00 | 53 | 1019.0 |
| 20260903201735 | 59 | 231 | 7.0 | 10.4 | 0.00 | 0.00 | 0.00 | 58 | 1018.8 |
| 20260903201230 | 59 | 236 | 7.0 | 9.6 | 0.00 | 0.00 | 0.00 | 57 | 1018.8 |
| 20260903200729 | 59 | 234 | 5.2 | 8.7 | 0.00 | 0.00 | 0.00 | 59 | 1018.9 |
| 20260903200228 | 59 | 231 | 5.2 | 9.6 | 0.00 | 0.00 | 0.00 | 56 | 1018.9 |
| 20260903195221 | 59 | 233 | 5.2 | 9.6 | 0.00 | 0.00 | 0.00 | 56 | 1018.8 |
| 20260903194720 | 59 | 230 | 6.1 | 9.6 | 0.00 | 0.00 | 0.00 | 56 | 1018.8 |
| 20260903193714 | 60 | 236 | 7.0 | 11.3 | 0.00 | 0.00 | 0.00 | 54 | 1018.7 |
| 20260903193213 | 60 | 233 | 7.0 | 11.3 | 0.00 | 0.00 | 0.00 | 54 | 1018.7 |
| 20260903192207 | 60 | 230 | 6.1 | 10.4 | 0.00 | 0.00 | 0.00 | 57 | 1018.6 |
| 20260903191706 | 60 | 232 | 7.8 | 11.3 | 0.00 | 0.00 | 0.00 | 56 | 1018.5 |
| 20260903191203 | 59 | 235 | 7.0 | 10.4 | 0.00 | 0.00 | 0.00 | 58 | 1018.5 |
| 20260903190156 | 60 | 231 | 5.2 | 9.6 | 0.00 | 0.00 | 0.00 | 57 | 1018.7 |
| 20260903185653 | 60 | 234 | 6.1 | 9.6 | 0.00 | 0.00 | 0.00 | 57 | 1018.6 |
| 20260903185152 | 60 | 237 | 6.1 | 9.6 | 0.00 | 0.00 | 0.00 | 59 | 1018.4 |
| 20260903184650 | 60 | 230 | 6.1 | 9.6 | 0.00 | 0.00 | 0.00 | 57 | 1018.4 |
| 20260903184149 | 60 | 217 | 6.1 | 8.7 | 0.00 | 0.00 | 0.00 | 55 | 1018.6 |
| 20260903183144 | 61 | 229 | 7.0 | 12.2 | 0.00 | 0.00 | 0.00 | 54 | 1018.4 |
| 20260903182137 | 61 | 216 | 7.0 | 11.3 | 0.00 | 0.00 | 0.00 | 53 | 1018.3 |
| 20260903181634 | 61 | 218 | 7.0 | 11.3 | 0.00 | 0.00 | 0.00 | 52 | 1018.2 |
| 20260903181132 | 61 | 219 | 7.8 | 13.9 | 0.00 | 0.00 | 0.00 | 53 | 1018.1 |
| 20260903180630 | 61 | 218 | 7.8 | 12.2 | 0.00 | 0.00 | 0.00 | 54 | 1018.1 |
| 20260903180127 | 61 | 217 | 7.0 | 11.3 | 0.00 | 0.00 | 0.00 | 54 | 1018.0 |
| 20260903175122 | 61 | 218 | 7.8 | 13.0 | 0.00 | 0.00 | 0.00 | 53 | 1017.9 |
| 20260903174617 | 61 | 218 | 8.7 | 13.9 | 0.00 | 0.00 | 0.00 | 52 | 1017.9 |
| 20260903174116 | 61 | 220 | 7.8 | 13.9 | 0.00 | 0.00 | 0.00 | 53 | 1017.8 |
| 20260903172607 | 61 | 219 | 7.0 | 10.4 | 0.00 | 0.00 | 0.00 | 57 | 1017.9 |
| 20260903172106 | 61 | 216 | 7.0 | 11.3 | 0.00 | 0.00 | 0.00 | 58 | 1017.8 |
| 20260903171604 | 61 | 222 | 6.1 | 10.4 | 0.00 | 0.00 | 0.00 | 58 | 1017.8 |
| 20260903171101 | 61 | 230 | 6.1 | 12.2 | 0.00 | 0.00 | 0.00 | 59 | 1017.7 |
| 20260903170600 | 61 | 239 | 3.5 | 8.7 | 0.00 | 0.00 | 0.00 | 60 | 1017.6 |
| 20260903165555 | 61 | 219 | 2.6 | 5.2 | 0.00 | 0.00 | 0.00 | 60 | 1017.6 |
| 20260903165052 | 61 | 231 | 4.3 | 7.8 | 0.00 | 0.00 | 0.00 | 60 | 1017.5 |
| 20260903164551 | 61 | 227 | 5.2 | 10.4 | 0.00 | 0.00 | 0.00 | 58 | 1017.4 |
| 20260903163546 | 61 | 232 | 5.2 | 8.7 | 0.00 | 0.00 | 0.00 | 59 | 1017.5 |
| 20260903163045 | 61 | 229 | 7.0 | 10.4 | 0.00 | 0.00 | 0.00 | 58 | 1017.6 |
| 20260903162038 | 61 | 232 | 6.1 | 9.6 | 0.00 | 0.00 | 0.00 | 59 | 1017.6 |
| 20260903161536 | 61 | 239 | 6.1 | 9.6 | 0.00 | 0.00 | 0.00 | 58 | 1017.6 |
| 20260903161035 | 62 | 237 | 7.0 | 10.4 | 0.00 | 0.00 | 0.00 | 58 | 1017.6 |
| 20260903160534 | 62 | 231 | 7.0 | 10.4 | 0.00 | 0.00 | 0.00 | 56 | 1017.5 |
| 20260903160033 | 62 | 236 | 7.0 | 10.4 | 0.00 | 0.00 | 0.00 | 56 | 1017.4 |
| 20260903154523 | 63 | 231 | 7.8 | 11.3 | 0.00 | 0.00 | 0.00 | 56 | 1017.4 |
| 20260903154023 | 63 | 237 | 7.8 | 13.0 | 0.00 | 0.00 | 0.00 | 56 | 1017.4 |
| 20260903153520 | 63 | 239 | 7.8 | 13.0 | 0.00 | 0.00 | 0.00 | 56 | 1017.3 |
| 20260903153019 | 63 | 236 | 7.0 | 12.2 | 0.00 | 0.00 | 0.00 | 55 | 1017.4 |
| 20260903152518 | 64 | 235 | 7.0 | 11.3 | 0.00 | 0.00 | 0.00 | 53 | 1017.4 |
| 20260903152016 | 64 | 235 | 7.8 | 14.8 | 0.00 | 0.00 | 0.00 | 54 | 1017.5 |
| 20260903151514 | 64 | 237 | 7.0 | 12.2 | 0.00 | 0.00 | 0.00 | 54 | 1017.5 |
| 20260903151013 | 64 | 239 | 7.0 | 12.2 | 0.00 | 0.00 | 0.00 | 56 | 1017.3 |
| 20260903150512 | 64 | 244 | 7.8 | 12.2 | 0.00 | 0.00 | 0.00 | 56 | 1017.3 |
| 20260903150010 | 64 | 248 | 8.7 | 13.9 | 0.00 | 0.00 | 0.00 | 55 | 1017.3 |
| 20260903145508 | 64 | 250 | 10.4 | 16.5 | 0.00 | 0.00 | 0.00 | 54 | 1017.1 |
| 20260903145007 | 64 | 244 | 7.8 | 14.8 | 0.00 | 0.00 | 0.00 | 54 | 1017.0 |
| 20260903143458 | 65 | 237 | 7.0 | 13.9 | 0.00 | 0.00 | 0.00 | 53 | 1017.1 |
| 20260903142958 | 65 | 239 | 7.8 | 13.9 | 0.00 | 0.00 | 0.00 | 53 | 1017.1 |
| 20260903142457 | 65 | 238 | 8.7 | 14.8 | 0.00 | 0.00 | 0.00 | 52 | 1017.0 |
| 20260903141450 | 65 | 230 | 7.0 | 11.3 | 0.00 | 0.00 | 0.00 | 51 | 1016.9 |
| 20260903140949 | 65 | 235 | 7.8 | 15.6 | 0.00 | 0.00 | 0.00 | 51 | 1016.9 |
| 20260903140446 | 66 | 233 | 8.7 | 14.8 | 0.00 | 0.00 | 0.00 | 51 | 1016.8 |
| 20260903135945 | 66 | 236 | 9.6 | 15.6 | 0.00 | 0.00 | 0.00 | 51 | 1016.8 |
| 20260903135444 | 66 | 239 | 9.6 | 16.5 | 0.00 | 0.00 | 0.00 | 53 | 1016.8 |
| 20260903134941 | 66 | 241 | 9.6 | 15.6 | 0.00 | 0.00 | 0.00 | 53 | 1016.7 |
| 20260903134440 | 66 | 237 | 10.4 | 18.2 | 0.00 | 0.00 | 0.00 | 51 | 1016.6 |
| 20260903133937 | 66 | 238 | 9.6 | 18.2 | 0.00 | 0.00 | 0.00 | 50 | 1016.4 |
| 20260903133435 | 66 | 243 | 10.4 | 16.5 | 0.00 | 0.00 | 0.00 | 55 | 1016.3 |
| 20260903132932 | 66 | 245 | 10.4 | 17.4 | 0.00 | 0.00 | 0.00 | 53 | 1016.2 |
| 20260903132430 | 66 | 243 | 10.4 | 18.2 | 0.00 | 0.00 | 0.00 | 54 | 1016.2 |
| 20260903131424 | 67 | 237 | 9.6 | 14.8 | 0.00 | 0.00 | 0.00 | 49 | 1016.2 |
| 20260903130921 | 67 | 237 | 8.7 | 15.6 | 0.00 | 0.00 | 0.00 | 50 | 1016.3 |
| 20260903130419 | 66 | 238 | 7.8 | 12.2 | 0.00 | 0.00 | 0.00 | 52 | 1016.2 |
| 20260903125412 | 66 | 246 | 8.7 | 13.0 | 0.00 | 0.00 | 0.00 | 55 | 1016.0 |
| 20260903124909 | 67 | 253 | 8.7 | 13.9 | 0.00 | 0.00 | 0.00 | 54 | 1015.9 |
| 20260903124406 | 66 | 255 | 8.7 | 11.3 | 0.00 | 0.00 | 0.00 | 56 | 1015.9 |
| 20260903123359 | 66 | 263 | 7.0 | 10.4 | 0.00 | 0.00 | 0.00 | 64 | 1015.9 |
| 20260903122856 | 65 | 267 | 6.1 | 8.7 | 0.00 | 0.00 | 0.00 | 68 | 1015.8 |
| 20260903122354 | 65 | 289 | 4.3 | 7.8 | 0.00 | 0.00 | 0.00 | 70 | 1015.7 |
| 20260903121852 | 66 | 290 | 4.3 | 7.0 | 0.00 | 0.00 | 0.00 | 70 | 1015.7 |
| 20260903121350 | 66 | 273 | 5.2 | 7.8 | 0.00 | 0.00 | 0.00 | 68 | 1015.7 |
| 20260903120845 | 66 | 268 | 5.2 | 7.8 | 0.00 | 0.00 | 0.00 | 69 | 1015.8 |
| 20260903120343 | 66 | 271 | 6.1 | 7.8 | 0.00 | 0.00 | 0.00 | 61 | 1015.7 |
| 20260903115336 | 67 | 296 | 4.3 | 6.1 | 0.00 | 0.00 | 0.00 | 58 | 1015.5 |
| 20260903114833 | 67 | 302 | 4.3 | 7.8 | 0.00 | 0.00 | 0.00 | 55 | 1015.5 |
| 20260903114330 | 67 | 302 | 5.2 | 7.0 | 0.00 | 0.00 | 0.00 | 55 | 1015.5 |
| 20260903113828 | 66 | 307 | 5.2 | 7.8 | 0.00 | 0.00 | 0.00 | 58 | 1015.6 |
| 20260903113325 | 67 | 309 | 6.1 | 9.6 | 0.00 | 0.00 | 0.00 | 57 | 1015.6 |
| 20260903112822 | 67 | 310 | 6.1 | 8.7 | 0.00 | 0.00 | 0.00 | 60 | 1015.4 |
| 20260903112319 | 67 | 302 | 4.3 | 10.4 | 0.00 | 0.00 | 0.00 | 62 | 1015.3 |
| 20260903111313 | 68 | 281 | 6.1 | 10.4 | 0.00 | 0.00 | 0.00 | 58 | 1015.0 |
| 20260903110812 | 67 | 294 | 4.3 | 9.6 | 0.00 | 0.00 | 0.00 | 59 | 1015.0 |
| 20260903110310 | 68 | 301 | 4.3 | 9.6 | 0.00 | 0.00 | 0.00 | 56 | 1015.1 |
| 20260903104801 | 68 | 292 | 5.2 | 9.6 | 0.00 | 0.00 | 0.00 | 57 | 1015.0 |
| 20260903103756 | 68 | 283 | 7.0 | 11.3 | 0.00 | 0.00 | 0.00 | 58 | 1014.7 |
| 20260903102750 | 68 | 262 | 7.0 | 10.4 | 0.00 | 0.00 | 0.00 | 58 | 1014.6 |
| 20260903102248 | 68 | 261 | 7.8 | 10.4 | 0.00 | 0.00 | 0.00 | 57 | 1014.6 |
| 20260903101242 | 68 | 266 | 6.1 | 8.7 | 0.00 | 0.00 | 0.00 | 60 | 1014.4 |
| 20260903100741 | 68 | 266 | 6.1 | 8.7 | 0.00 | 0.00 | 0.00 | 59 | 1014.3 |